Regional Weather Roundup
Issued by NWS Upton, NY

Current Version | Previous Version | Text Only | Print | Product List | Glossary Off
Versions: 1 2 3 4 5 6 7 8 9 10 11 12 13 14 15 16 17 18 19 20 21 22 23 24 25 26 27 28 29 30 31 32 33 34 35 36 37 38 39 40 41 42 43 44 45 46 47 48 49 50

000
ASUS41 KOKX 310704
RWROKX

REGIONAL WEATHER ROUNDUP
NATIONAL WEATHER SERVICE NEW YORK NY
300 AM EDT FRI JUL 31 2015

NOTE: "FAIR" INDICATES FEW OR NO CLOUDS BELOW 12,000 FEET WITH NO
SIGNIFICANT WEATHER AND/OR OBSTRUCTIONS TO VISIBILITY.

NYZ071-072-176-178-NJZ106-104-310800-
NEW YORK CITY METRO AREA


CITY           SKY/WX    TMP DP  RH WIND       PRES   REMARKS
CENTRAL PARK   CLEAR     76  71  85 CALM      29.86F HAZE
LAGUARDIA APRT PTCLDY    76  72  87 NW8       29.82F
KENNEDY INTL   PTCLDY    76  72  87 NW6       29.83F
NEWARK/LIBERTY PTCLDY    76  71  85 NW5       29.83F
BRNX BOT. GARD   N/A     73  70  88 W1        29.86S
TETERBORO      CLEAR     74  69  85 NW5       29.83S
$$

NYZ177-179-078>081-310800-
LONG ISLAND NEW YORK

CITY           SKY/WX    TMP DP  RH WIND       PRES   REMARKS
FARMINGDALE    CLEAR     74  72  93 NW5       29.82F FOG
ISLIP          CLEAR     72  71  97 NW6       29.80S
SHIRLEY        CLEAR     73  71  93 NW3       29.82S FOG
WESTHAMPTON    PTCLDY    73  72  96 NW3       29.83S FOG
MONTAUK POINT    N/A     75  72  90 W5        29.82F
$$

NYZ052-065-067-310800-
HUDSON VALLEY

CITY           SKY/WX    TMP DP  RH WIND       PRES   REMARKS
WHITE PLAINS   CLEAR     73  70  90 NW7       29.84S
NEWBURGH       PTCLDY    66  64  94 W5        29.86F
MONTGOMERY     CLEAR     64  63  96 CALM      29.85F
POUGHKEEPSIE   CLEAR     67  65  93 CALM      29.83S FOG
ALBANY         PTCLDY    66  61  84 SW3       29.82S
$$

NJZ001-105-106-008-010-013-015-019>022-104-310800-
NEW JERSEY

CITY           SKY/WX    TMP DP  RH WIND       PRES   REMARKS
NEWARK/LIBERTY PTCLDY    76  71  85 NW5       29.83F
TETERBORO      CLEAR     74  69  85 NW5       29.83S
CALDWELL       CLEAR     72  69  90 CALM      29.85F FOG
MORRISTOWN     MOCLDY    68  64  88 CALM      29.86S FOG
SOMERVILLE     FOG       70  68  93 CALM      29.84S VSB 1/4
SUSSEX         MOCLDY    63  62  97 CALM      29.87S FOG
ANDOVER          N/A     67  66  97 CALM      29.88S
TRENTON        CLEAR     72  69  90 NW6       29.85S
MILLVILLE      FOG       75  74  96 W7        29.87S VSB 1/2
ATLANTIC CITY  MOCLDY    74  73  97 W9        29.85F FOG
WRIGHTSTOWN    CLEAR     73  73 100 W6        29.83S
TOMS RIVER       N/A     73  72  94 W7        29.85S
BELMAR         CLOUDY    73  68  83 W6        29.84S
$$

PAZ047>061-062-071-310800-
EASTERN PENNSYLVANIA

CITY           SKY/WX    TMP DP  RH WIND       PRES   REMARKS
PHILADELPHIA   CLEAR     76  65  68 NW10      29.87S
ALLENTOWN      CLEAR     67  62  84 W5        29.89R
SCRANTON       CLEAR     63  59  87 S3        29.91S
$$

CTZ002-004>006-009-010-012-RIZ004-006-007-MAZ004-011-015-310800-
SOUTHERN NEW ENGLAND
 IN CT

CITY           SKY/WX    TMP DP  RH WIND       PRES   REMARKS
BRADLEY INTL   PTCLDY    69  68  96 CALM      29.80F FOG
HARTFORD       PTCLDY    72  71  97 CALM      29.80F FOG
DANBURY        PTCLDY    70  67  90 SW3       29.85F FOG
WTRBRY/OXFORD  CLOUDY    73  66  78 CALM      29.86S VSB 1/4
BRIDGEPORT     CLEAR     73  71  93 CALM      29.81F FOG
MERIDEN        FOG       71  69  93 CALM      29.81S VSB 1/4
NEW HAVEN      PTCLDY    72  70  93 CALM      29.81F FOG
CHESTER        DRZL/FOG  72  72 100 CALM      29.83F VSB 1/4
GROTON         CLOUDY    73  72  96 CALM      29.80S FOG
WILLIMANTIC    CLOUDY    72  70  93 CALM      29.81F

 IN RI

CITY           SKY/WX    TMP DP  RH WIND       PRES   REMARKS
PROVIDENCE     PTCLDY    73  71  93 W7        29.80F
BLOCK ISLAND     N/A     72  72 100 NW7       29.81F
WESTERLY       CLOUDY    73  72  96 CALM      29.81S FOG

 IN MA

CITY           SKY/WX    TMP DP  RH WIND       PRES   REMARKS
BOSTON         PTCLDY    74  68  81 W9        29.78S
WORCESTER      CLEAR     67  65  93 W8        29.83F
WESTFIELD      PTCLDY    66  65  96 CALM      29.81S FOG
PROVINCETOWN   CLOUDY    72  66  83 SW8       29.78F
NANTUCKET      CLOUDY    73  71  93 SW9       29.79F
$$

ANZ330-335-338-340-345-350-353-355-310800-
COASTAL MARINE OBSERVATIONS


STATION/POSITION TIME  SKY/WX   TEMP    WIND        PRES    VSBY  WAVE
                                AIR SEA DIR/SP/G                  HT/PER
                 (UTC)          (F)     (DEG/KT/KT) (MB)    (MI)  (FT/S)
NY HARB ENTRANCE 0550            74 75  250/  6/  8 1009.9          3/10
4S FIRE IS       NOT AVBL
20S FIRE ISLAND  0550            76 74  270/ 10/ 12 1009.7          3/ 5
GREAT SOUTH BAY  0615            76 80  290/  8/ 10   N/A
23SW MTP         0650            72 72  290/  8/  8 1009.0          4/ 6
HUDSON CANYON    NOT AVBL
KINGS POINT      0600            75 70   10/  1/  2 1009.4
EXECUTION ROCKS  0600            72     230/  2/  2   N/A
CENTRAL LI SOUND NOT AVBL
EASTERN LI SOUND 0600            71 67  250/  6/  8   N/A
ROBBINS REEF     0600            75     270/  9/  9 1009.2
$$


>>>>>>>>>>>>>>>>>>>>>>>>>>>> KEY <<<<<<<<<<<<<<<<<<<<<<<<<<<
>                                                          <
>     SKY/WX - SKY CONDITION/PRESENT WEATHER               <
>     TMP    - TEMPERATURE IN FAHRENHEIT                   <
>     DP     - DEWPOINT IN FAHRENHEIT                      <
>     RH     - RELATIVE HUMIDITY IN PERCENT                <
>     WIND   - DIRECTION AND SPEED IN MPH                  <
>     PRES   - MEAN SEA LEVEL PRESSURE IN INCHES OF HG     <
>     WCI    - WIND CHILL INDEX                            <
>     VSB    - VISIBILITY IN MILES                         <
>     HX     - HEAT INDEX                                  <
>     TC     - TEMPERATURE IN CELSIUS                      <
>     VRB    - VARIABLE WIND DIRECTION                     <
>                                                          <
>>>>>>>>>>>>>>>>>>>>>>>>>>>> KEY <<<<<<<<<<<<<<<<<<<<<<<<<<<




USA.gov is the U.S. government's official web portal to all federal, state and local government web resources and services.